| time (UTC) | temp C | wind direction | speed KPH | gust KPH | rain 1hr cm | rain 24hr cm | rain mn cm | humidity % | barometer mb |
| 20260504081804 | 17 | 331 | 3.2 | 25.7 | 0.00 | 0.00 | 0.00 | 36 | 1013.4 |
| 20260504081115 | 17 | 310 | 6.4 | 20.9 | 0.00 | 0.00 | 0.00 | 37 | 1013.7 |
| 20260504080217 | 17 | 328 | 3.2 | 35.4 | 0.00 | 0.00 | 0.00 | 36 | 1013.6 |
| 20260504070218 | 15 | 288 | 0.0 | 14.5 | 0.00 | 0.00 | 0.00 | 46 | 1013.4 |
| 20260504060213 | 15 | 297 | 1.6 | 3.2 | 0.00 | 0.00 | 0.00 | 51 | 1013.1 |
| 20260504050004 | 11 | 315 | 0.0 | 3.2 | 0.00 | 0.03 | 0.00 | 62 | 1013.1 |
| 20260504045616 | 11 | 315 | 0.0 | 3.2 | 0.00 | 0.03 | 0.00 | 62 | 1012.9 |
| 20260504044504 | 11 | 315 | 0.0 | 3.2 | 0.00 | 0.03 | 0.00 | 64 | 1013.1 |
| 20260504043815 | 10 | 315 | 0.0 | 3.2 | 0.00 | 0.03 | 0.00 | 64 | 1012.7 |
| 20260504042703 | 10 | 315 | 0.0 | 3.2 | 0.00 | 0.03 | 0.00 | 64 | 1012.8 |
| 20260504042015 | 10 | 315 | 0.0 | 3.2 | 0.00 | 0.03 | 0.00 | 64 | 1012.9 |
| 20260504040904 | 10 | 315 | 0.0 | 3.2 | 0.00 | 0.03 | 0.00 | 62 | 1012.8 |
| 20260504040215 | 10 | 315 | 1.6 | 6.4 | 0.00 | 0.03 | 0.00 | 61 | 1013.0 |
| 20260504035403 | 10 | 315 | 3.2 | 6.4 | 0.00 | 0.03 | 0.00 | 61 | 1012.6 |
| 20260504034503 | 10 | 315 | 1.6 | 3.2 | 0.00 | 0.03 | 0.00 | 63 | 1012.6 |
| 20260504033603 | 10 | 315 | 0.0 | 3.2 | 0.00 | 0.03 | 0.00 | 63 | 1012.5 |
| 20260504032703 | 10 | 315 | 0.0 | 3.2 | 0.00 | 0.03 | 0.00 | 63 | 1012.6 |
| 20260504031804 | 10 | 329 | 1.6 | 6.4 | 0.00 | 0.03 | 0.00 | 63 | 1012.6 |
| 20260504030904 | 9 | 360 | 3.2 | 6.4 | 0.00 | 0.03 | 0.00 | 65 | 1012.6 |
| 20260504030215 | 9 | 360 | 0.0 | 3.2 | 0.00 | 0.03 | 0.00 | 64 | 1012.6 |
| 20260504025403 | 9 | 360 | 0.0 | 3.2 | 0.00 | 0.03 | 0.00 | 64 | 1012.6 |
| 20260504024503 | 10 | 360 | 0.0 | 3.2 | 0.00 | 0.03 | 0.00 | 63 | 1012.5 |
| 20260504023603 | 10 | 360 | 0.0 | 3.2 | 0.00 | 0.03 | 0.00 | 63 | 1012.5 |
| 20260504022703 | 10 | 360 | 0.0 | 3.2 | 0.00 | 0.03 | 0.00 | 62 | 1012.3 |
| 20260504022016 | 10 | 360 | 3.2 | 3.2 | 0.00 | 0.03 | 0.00 | 61 | 1012.3 |
| 20260504020904 | 10 | 2 | 1.6 | 3.2 | 0.00 | 0.03 | 0.00 | 61 | 1012.6 |
| 20260504020004 | 10 | 22 | 1.6 | 3.2 | 0.00 | 0.03 | 0.00 | 61 | 1012.7 |
| 20260504015403 | 10 | 28 | 0.0 | 3.2 | 0.00 | 0.03 | 0.00 | 60 | 1012.4 |
| 20260504014715 | 10 | 39 | 1.6 | 3.2 | 0.00 | 0.03 | 0.00 | 60 | 1012.6 |
| 20260504013603 | 10 | 59 | 1.6 | 3.2 | 0.00 | 0.03 | 0.00 | 60 | 1012.6 |
| 20260504012703 | 10 | 67 | 1.6 | 3.2 | 0.00 | 0.03 | 0.00 | 60 | 1012.6 |
| 20260504012017 | 10 | 67 | 0.0 | 3.2 | 0.00 | 0.03 | 0.00 | 60 | 1012.4 |
| 20260504011115 | 10 | 58 | 1.6 | 6.4 | 0.00 | 0.03 | 0.00 | 59 | 1012.3 |
| 20260504010217 | 10 | 10 | 0.0 | 3.2 | 0.00 | 0.03 | 0.00 | 59 | 1012.5 |
| 20260504005613 | 10 | 360 | 0.0 | 3.2 | 0.00 | 0.03 | 0.00 | 60 | 1012.4 |
| 20260504004503 | 10 | 360 | 0.0 | 3.2 | 0.00 | 0.03 | 0.00 | 59 | 1012.3 |
| 20260504003603 | 10 | 360 | 0.0 | 3.2 | 0.00 | 0.03 | 0.00 | 59 | 1012.3 |
| 20260504002915 | 10 | 360 | 0.0 | 3.2 | 0.00 | 0.03 | 0.00 | 59 | 1012.5 |
| 20260504002018 | 10 | 5 | 0.0 | 3.2 | 0.00 | 0.03 | 0.00 | 58 | 1012.6 |
| 20260504001115 | 10 | 22 | 0.0 | 3.2 | 0.00 | 0.03 | 0.00 | 58 | 1012.5 |
| 20260504000219 | 10 | 22 | 0.0 | 3.2 | 0.00 | 0.03 | 0.00 | 57 | 1012.5 |
| 20260503235403 | 11 | 8 | 1.6 | 3.2 | 0.00 | 0.03 | 0.00 | 56 | 1012.6 |
| 20260503234716 | 11 | 326 | 3.2 | 9.7 | 0.00 | 0.03 | 0.00 | 55 | 1012.2 |
| 20260503233813 | 11 | 308 | 3.2 | 17.7 | 0.00 | 0.03 | 0.00 | 55 | 1012.6 |
| 20260503232916 | 11 | 315 | 8.0 | 12.9 | 0.00 | 0.03 | 0.00 | 55 | 1012.4 |
| 20260503231803 | 10 | 292 | 3.2 | 6.4 | 0.00 | 0.03 | 0.00 | 58 | 1012.5 |
| 20260503230904 | 10 | 292 | 0.0 | 3.2 | 0.00 | 0.03 | 0.00 | 58 | 1012.5 |
| 20260503230218 | 10 | 0 | 0.0 | 0.0 | 0.00 | 0.03 | 0.00 | 59 | 1012.6 |
| 20260503225614 | 10 | 292 | 0.0 | 3.2 | 0.00 | 0.03 | 0.00 | 59 | 1012.6 |
| 20260503224717 | 10 | 292 | 0.0 | 3.2 | 0.00 | 0.03 | 0.00 | 58 | 1012.4 |
| 20260503223814 | 11 | 303 | 1.6 | 6.4 | 0.00 | 0.10 | 0.00 | 57 | 1012.6 |
| 20260503222703 | 11 | 310 | 1.6 | 9.7 | 0.00 | 0.13 | 0.00 | 56 | 1012.5 |
| 20260503221804 | 11 | 309 | 4.8 | 17.7 | 0.00 | 0.13 | 0.00 | 54 | 1012.5 |
| 20260503221116 | 11 | 302 | 6.4 | 20.9 | 0.00 | 0.13 | 0.00 | 54 | 1012.7 |
| 20260503220213 | 11 | 302 | 12.9 | 17.7 | 0.00 | 0.13 | 0.00 | 54 | 1012.5 |
| 20260503215403 | 11 | 302 | 11.3 | 25.7 | 0.00 | 0.13 | 0.00 | 55 | 1012.5 |
| 20260503214503 | 11 | 305 | 12.9 | 25.7 | 0.00 | 0.13 | 0.00 | 54 | 1012.9 |
| 20260503213603 | 11 | 302 | 4.8 | 14.5 | 0.00 | 0.13 | 0.00 | 55 | 1012.7 |
| 20260503212703 | 11 | 310 | 6.4 | 17.7 | 0.00 | 0.13 | 0.00 | 56 | 1012.8 |
| 20260503212014 | 11 | 302 | 8.0 | 17.7 | 0.00 | 0.13 | 0.00 | 56 | 1012.6 |
| 20260503210904 | 11 | 303 | 6.4 | 17.7 | 0.00 | 0.13 | 0.00 | 55 | 1012.6 |
| 20260503210219 | 11 | 305 | 6.4 | 12.9 | 0.00 | 0.13 | 0.00 | 55 | 1012.7 |
| 20260503205616 | 11 | 309 | 8.0 | 17.7 | 0.00 | 0.13 | 0.13 | 56 | 1012.8 |
| 20260503204503 | 11 | 310 | 6.4 | 14.5 | 0.00 | 0.13 | 0.13 | 56 | 1012.7 |
| 20260503203603 | 11 | 303 | 9.7 | 17.7 | 0.00 | 0.13 | 0.13 | 56 | 1012.6 |
| 20260503202703 | 11 | 299 | 9.7 | 17.7 | 0.00 | 0.13 | 0.13 | 56 | 1012.9 |
| 20260503202015 | 11 | 301 | 6.4 | 24.1 | 0.00 | 0.13 | 0.13 | 56 | 1012.9 |
| 20260503200904 | 11 | 311 | 11.3 | 22.5 | 0.00 | 0.13 | 0.13 | 56 | 1013.0 |
| 20260503200004 | 11 | 299 | 8.0 | 17.7 | 0.00 | 0.13 | 0.13 | 56 | 1013.2 |
| 20260503195403 | 11 | 303 | 6.4 | 17.7 | 0.00 | 0.13 | 0.13 | 56 | 1012.9 |
| 20260503194503 | 12 | 300 | 6.4 | 14.5 | 0.00 | 0.13 | 0.13 | 56 | 1013.1 |
| 20260503193603 | 12 | 295 | 8.0 | 14.5 | 0.00 | 0.13 | 0.13 | 55 | 1012.9 |
| 20260503192913 | 12 | 309 | 8.0 | 17.7 | 0.00 | 0.13 | 0.13 | 54 | 1013.1 |
| 20260503191803 | 12 | 305 | 12.9 | 25.7 | 0.00 | 0.13 | 0.13 | 53 | 1012.9 |
| 20260503191113 | 12 | 305 | 9.7 | 17.7 | 0.00 | 0.13 | 0.13 | 54 | 1013.0 |
| 20260503190004 | 12 | 304 | 9.7 | 22.5 | 0.00 | 0.13 | 0.13 | 52 | 1012.8 |
| 20260503185403 | 12 | 305 | 12.9 | 22.5 | 0.00 | 0.13 | 0.13 | 52 | 1012.6 |
| 20260503184503 | 12 | 314 | 8.0 | 33.8 | 0.00 | 0.13 | 0.13 | 51 | 1012.5 |
| 20260503183817 | 12 | 313 | 14.5 | 33.8 | 0.00 | 0.13 | 0.13 | 51 | 1012.3 |
| 20260503182914 | 12 | 307 | 12.9 | 25.7 | 0.00 | 0.13 | 0.13 | 51 | 1012.5 |
| 20260503182016 | 12 | 304 | 12.9 | 25.7 | 0.00 | 0.13 | 0.13 | 52 | 1012.2 |
| 20260503181114 | 12 | 300 | 17.7 | 25.7 | 0.00 | 0.13 | 0.13 | 52 | 1012.1 |
| 20260503180004 | 12 | 321 | 12.9 | 29.0 | 0.00 | 0.13 | 0.13 | 52 | 1011.9 |
| 20260503175618 | 12 | 310 | 4.8 | 29.0 | 0.00 | 0.13 | 0.13 | 53 | 1011.6 |
| 20260503174503 | 12 | 301 | 16.1 | 27.4 | 0.00 | 0.13 | 0.13 | 53 | 1011.8 |
| 20260503173817 | 12 | 309 | 11.3 | 27.4 | 0.00 | 0.13 | 0.13 | 52 | 1011.7 |
| 20260503172914 | 12 | 312 | 12.9 | 24.1 | 0.00 | 0.13 | 0.13 | 52 | 1011.7 |
| 20260503171804 | 12 | 319 | 17.7 | 29.0 | 0.00 | 0.13 | 0.13 | 51 | 1011.5 |
| 20260503171114 | 13 | 307 | 6.4 | 25.7 | 0.00 | 0.13 | 0.13 | 51 | 1011.6 |
| 20260503170217 | 13 | 302 | 16.1 | 29.0 | 0.00 | 0.13 | 0.13 | 50 | 1011.4 |
| 20260503160217 | 15 | 312 | 4.8 | 33.8 | 0.00 | 0.13 | 0.13 | 45 | 1010.5 |
| 20260503150904 | 15 | 321 | 12.9 | 43.5 | 0.00 | 0.13 | 0.13 | 42 | 1010.5 |
| 20260503150218 | 14 | 315 | 14.5 | 29.0 | 0.00 | 0.13 | 0.13 | 46 | 1010.2 |
| 20260503130904 | 15 | 322 | 11.3 | 25.7 | 0.00 | 0.13 | 0.13 | 44 | 1010.5 |
| 20260503130214 | 15 | 326 | 4.8 | 22.5 | 0.00 | 0.13 | 0.13 | 44 | 1010.8 |
| 20260503110215 | 11 | 304 | 11.3 | 25.7 | 0.00 | 0.13 | 0.13 | 64 | 1011.2 |
| 20260503100216 | 12 | 306 | 12.9 | 29.0 | 0.00 | 0.13 | 0.13 | 57 | 1011.0 |